CAPE
nan nan nan 4 4 2 2 1 nan nan nan nan nan nan nan 0 nan nan 1 0 0 nan nan nan nan nan 9 100 187 187 211 215 202 202 195 186 183 183 178 175 175 183 185 184 184 195 203 216 216 211 207 192 193 193 194 186 186 185 185 186 186 207 218 248 248 275 287 293 314 314 343 365 389 389 429 399 382 382 372 376 376 397 393 375 375 375
nan 1 6 12 12 2 nan nan nan nan nan nan nan nan nan nan nan nan nan nan nan nan nan nan nan nan nan 28 162 162 194 196 192 192 198 194 194 194 197 198 198 200 198 204 204 206 206 202 202 191 183 178 176 176 174 172 172 170 181 194 194 213 233 270 270 294 300 293 297 297 305 330 383 383 403 401 404 404 378 378 378 378 370 367 367 400
2 8 9 6 6 nan nan nan nan nan nan nan nan nan nan nan nan nan nan nan nan nan nan 0 0 nan nan 0 107 107 162 184 195 195 191 200 206 206 210 212 212 211 204 202 202 199 194 183 183 174 176 175 176 176 178 180 180 175 188 209 209 228 259 282 282 299 298 285 286 286 277 290 343 343 378 387 392 392 383 397 397 376 358 353 353 400
8 5 1 nan nan nan nan nan nan nan nan nan nan nan nan nan nan nan nan nan nan nan 1 nan nan nan nan nan 33 33 149 181 191 191 195 206 214 214 205 205 205 201 188 180 180 177 175 172 172 169 174 172 175 175 184 187 187 192 206 220 220 237 245 255 255 269 272 275 292 292 291 299 323 323 348 382 380 380 392 404 404 376 349 356 356 395
11 3 nan nan nan nan nan nan nan nan nan nan nan nan nan nan nan nan nan nan nan nan 0 nan nan nan nan nan 1 1 139 179 178 178 184 201 202 202 201 179 179 168 162 165 165 163 162 166 166 174 172 179 186 186 195 197 197 206 217 230 230 233 229 230 230 265 286 286 296 296 308 318 326 326 328 348 360 360 370 367 367 359 339 351 351 381
9 6 nan nan nan nan nan nan nan nan nan nan nan nan nan nan nan nan nan 0 0 0 nan nan nan nan nan nan 5 5 137 163 167 167 167 171 172 172 164 158 158 156 152 155 155 154 159 164 164 170 175 183 199 199 209 215 215 218 231 239 239 236 241 259 259 282 296 294 298 298 310 315 319 319 335 339 346 346 341 340 340 331 331 336 336 348
9 2 nan nan nan nan nan nan nan nan 0 1 0 0 nan nan nan nan nan nan nan nan nan nan nan nan nan nan 54 54 130 138 136 136 129 133 132 132 133 141 141 148 148 147 147 158 157 163 163 170 182 192 207 207 215 222 222 234 240 244 244 259 289 294 294 304 295 279 262 262 261 266 297 297 324 339 339 339 328 322 322 308 297 296 296 304
1 nan nan nan nan nan nan 18 12 12 nan nan nan nan 0 7 0 0 nan nan nan nan nan nan nan nan nan nan nan nan nan nan nan nan 3 18 52 52 86 119 119 125 135 144 144 156 156 158 158 159 172 190 217 217 221 218 218 207 206 210 210 215 218 233 233 237 225 227 216 216 202 198 211 211 232 249 258 258 253 249 249 250 243 243 243 248
nan nan nan nan nan nan 5 11 nan nan nan nan 1 1 6 3 nan nan nan nan nan nan nan nan nan nan nan nan nan nan nan 3 nan nan 2 nan nan nan 28 71 71 92 118 131 131 135 131 131 131 144 156 180 190 190 185 171 171 160 170 174 174 174 174 183 183 196 201 218 221 221 223 206 200 200 204 210 210 210 209 217 217 233 244 252 252 255
nan nan nan nan nan 8 13 3 nan nan nan 1 2 2 2 0 nan nan nan nan nan nan nan nan nan nan nan nan nan nan nan 5 53 53 76 66 80 80 60 54 54 41 93 110 110 111 109 108 108 123 138 155 155 155 148 128 128 124 134 137 137 138 140 159 159 173 190 215 221 221 224 217 209 209 207 195 185 185 180 193 193 218 243 263 263 279
nan nan nan 7 7 7 2 nan nan nan nan 0 0 0 nan nan nan nan nan nan nan nan nan nan nan nan nan nan nan nan nan nan nan nan 11 53 80 80 82 84 84 86 94 93 93 88 88 95 95 104 113 115 108 108 98 88 88 87 100 111 111 125 137 152 152 158 173 188 193 193 201 203 205 205 205 198 182 182 176 185 185 202 228 269 269 294
nan nan 1 6 6 0 nan nan nan nan 0 0 nan nan nan nan nan nan nan nan nan nan nan nan nan nan nan nan nan nan nan nan nan nan nan nan nan nan 6 2 2 15 33 44 44 59 68 78 78 83 72 61 71 71 65 57 57 74 85 105 105 121 125 131 131 138 148 163 168 168 174 183 192 192 201 196 188 188 180 181 181 196 220 255 255 289
nan 1 5 nan nan nan nan nan 2 2 nan nan nan nan nan nan nan nan nan nan nan nan nan nan nan nan nan nan nan nan nan nan nan nan nan nan nan nan nan nan nan nan nan nan nan nan 17 41 41 50 48 42 50 50 55 56 56 70 83 92 92 104 113 121 121 132 142 154 161 161 177 180 195 195 207 210 200 200 195 195 195 206 221 248 248 281
6 9 0 nan nan nan nan 0 nan nan nan nan nan nan nan nan nan nan nan nan nan nan nan nan nan nan nan nan nan nan nan nan nan nan nan nan nan nan nan nan nan nan nan nan nan nan 4 9 9 2 18 22 24 24 33 51 51 70 82 88 88 94 101 117 117 130 152 167 180 180 185 199 206 206 218 223 216 216 210 210 210 212 227 244 244 270
14 3 nan nan nan 0 0 nan nan nan nan nan nan nan nan nan nan nan nan 0 0 nan 0 0 0 nan nan nan nan nan nan nan nan nan nan nan nan nan nan nan nan nan nan nan nan nan 0 nan nan nan nan 0 8 8 28 40 40 67 74 76 76 83 99 117 117 136 157 173 182 182 191 202 215 215 222 224 219 219 208 200 200 199 205 217 217 241
3 nan nan 1 1 1 nan nan nan nan nan nan nan nan nan nan nan nan 2 3 3 1 5 3 3 3 2 nan nan nan nan nan nan nan nan nan nan nan nan nan nan nan nan nan nan nan nan nan nan nan nan 5 46 46 59 50 50 58 65 75 75 87 100 121 121 140 158 168 175 175 184 182 185 185 194 199 190 190 179 167 167 166 175 186 186 199
nan nan 0 2 2 nan nan nan nan nan nan nan nan nan nan nan nan nan 2 3 3 3 8 5 5 6 5 nan nan nan nan nan nan nan nan 0 nan nan nan nan nan nan nan nan nan nan nan nan nan nan nan 13 50 50 55 55 55 58 67 78 78 84 98 116 116 131 147 156 162 162 164 163 159 159 170 170 168 168 164 157 157 155 164 173 173 181
nan nan nan nan nan nan nan nan nan nan nan nan nan nan nan 0 0 0 0 0 0 2 5 6 6 8 5 3 nan nan nan nan 0 0 nan 1 nan nan nan nan nan nan nan nan nan nan nan nan nan nan nan 24 47 47 54 57 57 63 72 78 78 83 91 100 100 122 132 145 152 152 161 163 162 162 167 166 179 179 180 178 178 177 186 193 193 192
nan nan nan nan nan nan nan nan nan nan nan nan nan nan 0 1 1 1 0 0 0 3 4 4 4 3 3 3 0 0 nan nan nan nan 0 0 nan nan nan nan nan nan nan nan nan nan nan nan nan nan 15 39 50 50 55 56 56 64 71 75 75 77 83 97 97 108 121 135 149 149 158 169 175 175 175 178 183 183 195 195 195 197 197 203 203 210
nan nan nan nan nan nan nan nan nan nan nan nan 0 0 1 0 0 0 2 2 2 2 2 1 1 2 2 2 0 0 nan nan nan nan 0 0 nan nan nan nan nan nan nan nan nan nan nan nan nan nan 14 38 48 48 51 58 58 61 69 73 73 76 80 88 88 100 117 137 147 147 152 158 171 171 174 180 184 184 188 191 191 192 195 197 197 199
nan nan nan nan nan nan nan nan nan nan 2 3 nan nan nan 3 6 6 7 3 3 1 1 1 1 3 1 2 0 0 nan nan 0 0 nan nan nan nan nan nan nan nan nan nan nan nan nan nan nan nan nan 25 41 41 47 52 52 59 65 68 68 71 76 84 84 97 110 127 132 132 136 138 147 147 155 157 164 164 168 173 173 174 180 180 180 180
nan nan nan nan nan nan 0 nan 1 1 12 3 2 2 8 9 11 11 4 1 1 2 6 5 5 5 2 2 nan nan nan nan nan nan nan 0 0 0 nan nan nan nan nan nan nan nan nan nan nan nan nan 26 39 39 45 51 51 57 63 66 66 66 72 76 76 79 92 104 116 116 115 118 126 126 129 140 143 143 155 151 151 151 160 172 172 173
nan nan nan nan nan nan 0 nan 6 6 24 10 14 14 9 6 5 5 4 1 1 4 6 5 5 4 1 0 nan nan nan nan nan nan nan 1 1 1 nan nan nan nan nan nan nan nan nan nan nan nan 1 33 41 41 46 52 52 59 61 65 65 65 65 67 67 70 81 93 100 100 103 109 116 116 125 127 135 135 140 137 137 141 153 164 164 166
nan nan nan 0 0 3 10 15 13 13 7 2 1 1 4 3 3 3 3 4 4 4 2 1 1 0 nan nan nan nan nan nan nan nan nan nan 0 0 nan nan nan 0 nan nan nan nan nan nan nan nan nan 26 42 42 47 50 50 53 56 56 56 55 56 61 61 67 76 88 91 91 96 102 112 112 121 131 132 132 135 137 137 138 146 151 151 159
0 2 6 17 17 35 31 13 5 5 1 1 3 3 6 13 15 15 5 1 1 1 2 nan nan 0 nan 5 nan nan nan nan nan nan nan nan nan nan nan nan nan nan nan nan nan nan nan nan nan nan nan 5 35 35 41 43 43 46 48 52 52 54 58 62 62 71 78 87 92 92 96 107 116 116 127 132 133 133 131 133 133 138 148 154 154 161
27 38 47 62 62 83 76 62 55 55 33 8 3 3 3 7 3 3 0 1 1 0 1 0 0 nan 0 nan nan nan nan nan nan nan nan nan nan nan nan nan nan nan 0 nan nan nan nan nan nan nan nan nan 21 21 36 41 41 46 49 54 54 58 61 64 64 72 77 80 84 84 90 98 108 108 113 117 118 118 120 121 121 131 139 151 151 163
97 108 109 83 83 61 50 54 63 63 80 55 15 15 5 2 1 1 1 2 2 nan nan nan nan nan 0 0 nan nan nan nan nan nan nan nan nan nan nan nan nan nan 0 nan nan nan 1 1 1 nan nan nan nan nan 21 36 36 44 50 54 54 56 57 56 56 56 59 59 64 64 74 81 85 85 87 83 83 83 89 92 92 105 119 126 126 130
88 66 40 28 28 25 29 38 41 41 46 51 64 64 34 1 1 1 1 0 0 nan nan nan nan nan 0 nan nan nan nan 0 nan nan nan nan 0 0 nan nan nan nan nan nan nan 0 14 6 6 nan nan nan nan nan 0 27 27 34 36 38 38 40 43 44 44 44 49 53 57 57 61 67 72 72 71 67 68 68 73 79 79 87 96 83 83 41
31 13 9 12 12 17 23 25 28 28 32 40 55 55 36 nan 1 1 2 1 1 nan nan nan nan nan nan nan nan nan 0 0 nan nan nan nan nan nan nan nan nan nan nan nan nan nan 2 1 1 nan nan nan nan nan nan 12 12 15 22 27 27 31 36 35 35 38 42 46 48 48 56 58 62 62 68 72 76 76 81 89 89 94 83 68 68 37
nan nan 3 7 7 12 11 4 14 14 29 38 51 51 35 1 1 1 2 0 0 nan nan 1 1 nan nan 0 nan nan nan nan nan nan nan nan nan nan nan nan nan nan nan nan nan nan nan nan nan nan nan nan nan nan nan nan nan nan nan 18 18 28 29 34 34 37 40 43 47 47 53 60 66 66 75 80 82 82 88 98 98 88 62 40 40 35
nan nan nan nan nan nan nan nan 1 1 21 36 40 40 21 0 nan nan nan nan nan nan nan nan nan nan nan nan nan nan nan nan nan nan nan nan nan nan nan nan nan nan nan nan nan nan nan nan nan nan nan nan nan nan nan nan nan nan nan nan nan nan 16 27 27 33 35 39 42 42 48 54 62 62 64 67 68 68 71 82 82 68 32 22 22 18
nan nan nan nan nan nan nan nan nan nan nan nan nan nan 2 2 nan nan nan nan nan nan nan nan nan nan nan nan nan nan 0 nan nan nan nan nan nan nan nan nan nan nan nan nan nan nan nan nan nan nan 1 1 nan nan nan nan nan nan nan nan nan nan nan 7 7 6 9 17 25 25 31 36 37 37 40 44 44 44 49 54 54 52 20 8 8 11
nan nan nan nan nan nan nan nan nan nan nan nan nan nan nan nan 1 1 nan nan nan nan nan nan nan nan nan nan nan nan nan nan 0 0 3 nan nan nan nan nan nan nan nan nan nan nan nan nan nan nan nan 0 0 0 nan nan nan nan nan nan nan nan nan nan nan nan 0 3 8 8 20 24 31 31 34 36 38 38 40 44 44 48 40 6 6 12
nan nan nan nan nan nan nan nan nan nan nan nan nan nan nan nan nan nan nan nan nan nan nan nan nan nan nan nan nan nan nan nan nan nan 1 nan nan nan nan nan nan nan nan nan nan nan nan nan nan nan nan nan nan nan nan nan nan nan nan nan nan nan nan nan nan nan nan nan nan nan nan 1 15 15 22 30 31 31 34 36 36 42 46 25 25 15
nan nan nan nan nan nan nan nan nan nan nan nan nan nan nan nan nan nan nan nan nan nan nan nan nan nan nan nan nan nan nan nan nan nan 4 nan nan nan nan nan nan nan nan nan nan nan nan nan nan nan nan nan nan nan nan nan nan nan nan nan nan nan nan nan nan nan nan nan nan nan nan nan nan nan 3 13 25 25 33 36 36 42 50 53 53 35
nan nan nan nan nan nan nan nan nan nan nan nan nan nan nan nan nan nan nan nan nan nan nan nan nan nan nan nan nan nan nan nan nan nan 6 0 nan nan nan nan nan nan nan nan nan nan nan nan nan nan nan nan nan nan nan nan nan nan nan nan nan nan nan nan nan nan nan nan nan nan nan nan nan nan 0 18 31 31 38 41 41 44 50 57 57 63
nan 0 nan nan nan nan nan nan nan nan nan nan nan nan nan nan nan nan nan nan nan nan nan nan nan nan nan nan nan nan nan nan nan nan 0 nan 0 0 nan nan nan nan nan nan nan nan nan nan nan nan nan nan nan nan nan nan nan nan nan nan nan nan nan nan nan nan nan nan nan nan nan nan nan nan 2 18 23 23 26 37 37 38 45 52 52 64
0 0 nan nan nan nan nan nan nan nan nan nan nan nan nan nan nan nan nan nan nan nan nan nan nan nan nan 2 nan nan nan nan nan nan nan nan nan nan 0 nan nan nan nan nan nan nan nan nan nan nan nan nan 0 0 nan nan nan nan nan nan nan nan nan nan nan nan nan nan nan nan 0 nan nan nan nan 0 nan nan 0 1 1 11 25 37 37 50
nan nan nan nan nan nan nan nan nan nan nan nan nan nan nan nan nan nan nan nan nan nan nan nan nan nan nan nan nan nan 0 nan nan nan nan nan nan nan nan nan nan nan nan nan nan nan nan nan nan nan nan nan nan nan nan nan nan nan nan nan nan nan nan nan nan nan nan nan 0 0 nan nan nan nan nan nan nan nan nan nan nan 1 2 1 1 15
nan nan nan 0 0 nan nan nan nan nan nan nan nan nan nan nan nan nan nan nan nan nan nan nan nan nan nan nan nan nan nan nan nan nan nan nan nan nan nan nan nan nan nan nan nan nan nan nan nan nan nan nan nan nan nan nan nan nan nan nan nan nan nan nan nan nan nan nan nan nan nan nan nan nan nan nan nan nan nan nan nan nan 0 0 0 0
0 nan nan nan nan nan nan nan nan nan nan nan nan nan nan nan nan nan nan nan nan nan nan nan nan nan nan nan nan nan nan nan nan nan nan nan nan nan nan nan nan nan nan nan nan nan nan nan nan nan nan nan nan nan nan nan nan nan 1 nan nan nan nan nan nan nan nan nan nan nan nan nan nan nan nan nan nan nan nan nan nan nan nan nan nan nan
2 0 nan nan nan nan nan nan nan nan nan nan nan nan nan nan nan nan nan nan nan nan nan nan nan nan nan nan nan nan nan nan nan nan nan nan nan nan nan nan nan nan nan nan nan nan nan nan nan nan nan nan nan nan nan nan nan nan nan nan nan nan nan nan nan nan nan nan nan nan nan nan nan nan nan nan nan nan nan nan nan 1 1 nan nan nan
nan nan nan nan nan nan nan nan nan nan nan nan nan nan nan nan nan nan nan nan nan nan nan nan nan nan nan nan nan nan nan nan nan nan nan nan nan nan nan nan nan nan nan nan nan nan nan nan nan nan nan nan nan nan nan nan nan nan nan nan nan nan nan nan nan nan nan nan nan nan nan nan nan nan nan nan nan nan nan 0 0 6 4 0 0 nan
nan nan nan nan nan nan nan nan nan nan nan nan nan nan nan nan nan nan nan nan nan nan nan nan nan nan nan nan nan nan nan nan nan nan nan nan nan nan nan nan nan nan nan nan nan nan nan nan nan nan nan nan nan nan nan nan nan nan nan nan nan nan nan nan nan nan nan nan nan nan nan nan nan nan nan nan nan nan nan nan nan nan 1 0 0 nan
nan nan nan nan nan nan nan nan nan nan nan nan nan nan nan nan nan nan nan nan nan nan nan nan nan nan nan nan nan nan nan nan nan nan nan nan nan nan nan nan nan nan nan nan nan nan nan nan nan nan nan nan nan nan nan nan nan nan nan nan nan nan nan nan nan nan nan nan nan nan nan nan nan nan nan nan nan nan nan nan nan nan nan nan nan nan
nan nan nan nan nan nan nan nan nan nan nan nan nan nan nan nan nan nan nan nan nan nan nan nan nan nan nan nan nan nan nan nan nan nan nan nan nan nan nan nan nan nan nan nan nan nan nan nan nan nan nan nan nan nan nan nan nan nan nan nan nan nan nan nan nan nan nan nan nan nan nan nan nan nan nan nan nan nan nan nan nan nan nan nan nan nan
nan nan nan nan nan nan nan nan nan nan nan nan nan nan nan nan nan nan nan nan nan nan nan nan nan nan nan nan nan nan nan nan nan nan nan nan nan nan nan nan nan nan nan nan nan nan nan nan nan nan nan nan nan nan nan nan nan nan nan nan nan nan nan nan nan nan nan nan nan nan nan nan nan nan nan nan nan nan nan nan nan nan nan nan nan nan
nan nan nan nan nan nan nan nan nan nan nan nan nan nan nan nan nan nan nan nan nan nan nan nan nan nan nan nan nan nan nan nan nan nan nan nan nan nan nan nan nan nan nan nan nan nan nan nan nan nan nan nan nan nan nan nan nan nan nan nan nan nan nan nan nan nan nan nan nan nan nan nan nan nan nan nan nan nan nan nan nan nan nan nan nan 0
nan nan nan nan nan nan nan nan nan nan nan nan nan nan nan nan 6 6 nan nan nan nan nan nan nan nan nan nan nan nan nan nan nan nan nan nan nan nan nan nan nan nan nan nan nan nan nan nan nan nan nan nan nan nan nan nan nan nan nan nan nan nan nan nan nan nan nan nan nan nan nan nan nan nan nan nan nan nan nan nan nan nan nan nan nan nan
nan nan nan nan nan nan nan nan nan nan nan nan nan nan nan nan nan nan nan nan nan nan nan nan nan nan nan nan nan nan nan nan nan nan nan nan nan nan nan nan nan nan nan nan nan nan nan nan nan nan nan nan nan nan nan nan nan nan nan nan nan nan nan nan nan nan nan nan nan nan nan nan nan nan nan nan nan nan nan nan nan nan nan nan nan nan
nan nan nan nan nan nan nan nan nan nan nan nan nan nan nan nan nan nan nan nan nan nan nan nan nan nan nan nan nan nan nan nan nan nan nan nan nan nan nan nan nan nan nan nan nan nan nan nan nan nan nan nan nan nan nan nan nan nan nan nan nan nan nan nan nan nan nan nan nan nan nan nan nan nan nan nan nan nan nan nan nan nan nan nan nan nan
CIN
nan nan nan -36 -36 -31 -30 -64 nan nan nan nan nan nan nan -35 nan nan -56 -47 -47 nan nan nan nan nan -18 0 0 0 0 0 0 0 0 0 0 0 0 0 0 0 0 0 0 0 0 0 0 0 0 0 0 0 0 0 0 0 0 0 0 0 0 0 0 0 0 0 0 0 0 0 0 0 0 0 0 0 0 0 0 0 0 0 0 0
nan -40 -34 -24 -24 -29 nan nan nan nan nan nan nan nan nan nan nan nan nan nan nan nan nan nan nan nan nan -4 0 0 0 0 0 0 0 0 0 0 0 0 0 0 0 0 0 0 0 0 0 0 0 0 0 0 0 0 0 0 0 0 0 0 0 0 0 0 0 0 0 0 0 0 0 0 0 0 0 0 0 0 0 0 0 0 0 0
-19 -9 -16 -37 -37 nan nan nan nan nan nan nan nan nan nan nan nan nan nan nan nan nan nan -59 -59 nan nan -47 0 0 0 0 0 0 0 0 0 0 0 0 0 0 0 0 0 0 0 0 0 0 0 0 0 0 0 0 0 0 0 0 0 0 0 0 0 0 0 0 0 0 0 0 0 0 0 0 0 0 0 0 0 0 0 0 0 0
-15 -7 -27 nan nan nan nan nan nan nan nan nan nan nan nan nan nan nan nan nan nan nan -63 nan nan nan nan nan 0 0 0 0 0 0 0 0 0 0 0 0 0 0 0 0 0 0 0 0 0 0 0 0 0 0 0 0 0 0 0 0 0 0 0 0 0 0 0 0 0 0 0 0 0 0 0 0 0 0 0 0 0 0 0 0 0 0
-12 -18 nan nan nan nan nan nan nan nan nan nan nan nan nan nan nan nan nan nan nan nan -68 nan nan nan nan nan -18 -18 0 0 0 0 0 0 0 0 0 0 0 0 0 0 0 0 0 0 0 0 0 0 0 0 0 0 0 0 0 0 0 0 0 0 0 0 0 0 0 0 0 0 0 0 0 0 0 0 0 0 0 0 0 0 0 0
-21 -23 nan nan nan nan nan nan nan nan nan nan nan nan nan nan nan nan nan -62 -62 -53 nan nan nan nan nan nan -5 -5 0 0 0 0 0 0 0 0 0 0 0 0 0 0 0 0 0 0 0 0 0 0 0 0 0 0 0 0 0 0 0 0 0 0 0 0 0 0 0 0 0 0 0 0 0 0 0 0 0 0 0 0 0 0 0 0
-24 -33 nan nan nan nan nan nan nan nan -14 -11 -31 -31 nan nan nan nan nan nan nan nan nan nan nan nan nan nan 0 0 0 0 0 0 0 0 0 0 0 0 0 0 0 0 0 0 0 0 0 0 0 0 0 0 0 0 0 0 0 0 0 0 0 0 0 0 0 0 0 0 0 0 0 0 0 0 0 0 0 0 0 0 0 0 0 0
-16 nan nan nan nan nan nan -8 -11 -11 nan nan nan nan -44 -19 -35 -35 nan nan nan nan nan nan nan nan nan nan nan nan nan nan nan nan 0 0 0 0 0 0 0 0 0 0 0 0 0 0 0 0 0 0 0 0 0 0 0 0 0 0 0 0 0 0 0 0 0 0 0 0 0 0 0 0 0 0 0 0 0 0 0 0 0 0 0 0
nan nan nan nan nan nan -5 -7 nan nan nan nan -51 -51 -30 -22 nan nan nan nan nan nan nan nan nan nan nan nan nan nan nan -0 nan nan -0 nan nan nan 0 0 0 0 0 0 0 0 0 0 0 0 0 0 0 0 0 0 0 0 0 0 0 0 0 0 0 0 0 0 0 0 0 0 0 0 0 0 0 0 0 0 0 0 0 0 0 0
nan nan nan nan nan -8 -3 -22 nan nan nan -67 -59 -59 -38 -27 nan nan nan nan nan nan nan nan nan nan nan nan nan nan nan -0 0 0 0 0 0 0 0 0 0 0 0 0 0 0 0 0 0 0 0 0 0 0 0 0 0 0 0 0 0 0 0 0 0 0 0 0 0 0 0 0 0 0 0 0 0 0 0 0 0 0 0 0 0 0
nan nan nan -6 -6 -16 -46 nan nan nan nan -64 -53 -53 nan nan nan nan nan nan nan nan nan nan nan nan nan nan nan nan nan nan nan nan 0 0 0 0 0 0 0 0 0 0 0 0 0 0 0 0 0 0 0 0 0 0 0 0 0 0 0 0 0 0 0 0 0 0 0 0 0 0 0 0 0 0 0 0 0 0 0 0 0 0 0 0
nan nan -7 -16 -16 -39 nan nan nan nan -65 -42 nan nan nan nan nan nan nan nan nan nan nan nan nan nan nan nan nan nan nan nan nan nan nan nan nan nan -1 -4 -4 0 0 0 0 0 0 0 0 0 0 0 0 0 0 0 0 0 0 0 0 0 0 0 0 0 0 0 0 0 0 0 0 0 0 0 0 0 0 0 0 0 0 0 0 0
nan -20 -17 nan nan nan nan nan -43 -43 nan nan nan nan nan nan nan nan nan nan nan nan nan nan nan nan nan nan nan nan nan nan nan nan nan nan nan nan nan nan nan nan nan nan nan nan 0 0 0 0 0 0 0 0 0 0 0 0 0 0 0 0 0 0 0 0 0 0 0 0 0 0 0 0 0 0 0 0 0 0 0 0 0 0 0 0
-15 -14 -30 nan nan nan nan -44 nan nan nan nan nan nan nan nan nan nan nan nan nan nan nan nan nan nan nan nan nan nan nan nan nan nan nan nan nan nan nan nan nan nan nan nan nan nan 0 0 0 -2 0 0 0 0 0 0 0 0 0 0 0 0 0 0 0 0 0 0 0 0 0 0 0 0 0 0 0 0 0 0 0 0 0 0 0 0
-11 -20 nan nan nan -39 -40 nan nan nan nan nan nan nan nan nan nan nan nan -9 -9 nan -9 -13 -13 nan nan nan nan nan nan nan nan nan nan nan nan nan nan nan nan nan nan nan nan nan -1 nan nan nan nan -3 0 0 0 0 0 0 0 0 0 0 0 0 0 0 0 0 0 0 0 0 0 0 0 0 0 0 0 0 0 0 0 0 0 0
-18 nan nan -26 -26 -31 nan nan nan nan nan nan nan nan nan nan nan nan -5 -7 -7 -10 -7 -10 -10 -12 -13 nan nan nan nan nan nan nan nan nan nan nan nan nan nan nan nan nan nan nan nan nan nan nan nan 0 0 0 0 0 0 0 0 0 0 0 0 0 0 0 0 0 0 0 0 0 0 0 0 0 0 0 0 0 0 0 0 0 0 0
nan nan -27 -24 -24 nan nan nan nan nan nan nan nan nan nan nan nan nan -6 -6 -6 -7 -4 -3 -3 -3 -7 nan nan nan nan nan nan nan nan -6 nan nan nan nan nan nan nan nan nan nan nan nan nan nan nan 0 0 0 0 0 0 0 0 0 0 0 0 0 0 0 0 0 0 0 0 0 0 0 0 0 0 0 0 0 0 0 0 0 0 0
nan nan nan nan nan nan nan nan nan nan nan nan nan nan nan -8 -9 -9 -10 -8 -8 -4 -6 -5 -5 -2 -5 -7 nan nan nan nan -5 -5 nan -3 nan nan nan nan nan nan nan nan nan nan nan nan nan nan nan 0 0 0 0 0 0 0 0 0 0 0 0 0 0 0 0 0 0 0 0 0 0 0 0 0 0 0 0 0 0 0 0 0 0 0
nan nan nan nan nan nan nan nan nan nan nan nan nan nan -7 -7 -6 -6 -7 -12 -12 -5 -4 -6 -6 -6 -5 -3 -4 -4 nan nan nan nan -3 -3 nan nan nan nan nan nan nan nan nan nan nan nan nan nan 0 0 0 0 0 0 0 0 0 0 0 0 0 0 0 0 0 0 0 0 0 0 0 0 0 0 0 0 0 0 0 0 0 0 0 0
nan nan nan nan nan nan nan nan nan nan nan nan -5 -5 -3 -5 -7 -7 -10 -12 -12 -8 -6 -6 -6 -6 -6 -5 -6 -6 nan nan nan nan -3 -3 nan nan nan nan nan nan nan nan nan nan nan nan nan nan 0 0 0 0 0 0 0 0 0 0 0 0 0 0 0 0 0 0 0 0 0 0 0 0 0 0 0 0 0 0 0 0 0 0 0 0
nan nan nan nan nan nan nan nan nan nan -4 -5 nan nan nan -4 -6 -6 -9 -10 -10 -9 -8 -4 -4 -5 -7 -5 -8 -8 nan nan -3 -3 nan nan nan nan nan nan nan nan nan nan nan nan nan nan nan nan nan 0 0 0 0 0 0 0 0 0 0 0 0 0 0 0 0 0 0 0 0 0 0 0 0 0 0 0 0 0 0 0 0 0 0 0
nan nan nan nan nan nan -5 nan -7 -7 -2 -4 -9 -9 -4 -4 -4 -4 -8 -9 -9 -6 -3 -3 -3 -5 -6 -5 nan nan nan nan nan nan nan -2 -2 -2 nan nan nan nan nan nan nan nan nan nan nan nan nan 0 0 0 0 0 0 0 0 0 0 0 0 0 0 0 0 0 0 0 0 0 0 0 0 0 0 0 0 0 0 0 0 0 0 0
nan nan nan nan nan nan -14 nan -11 -11 -3 -5 -4 -4 -7 -7 -5 -5 -6 -6 -6 -4 -3 -5 -5 -6 -8 -8 nan nan nan nan nan nan nan -0 -1 -1 nan nan nan nan nan nan nan nan nan nan nan nan -0 0 0 0 0 0 0 0 0 0 0 0 0 0 0 0 0 0 0 0 0 0 0 0 0 0 0 0 0 0 0 0 0 0 0 0
nan nan nan -25 -25 -23 -18 -15 -15 -15 -14 -15 -16 -16 -22 -17 -11 -11 -7 -5 -5 -5 -7 -9 -9 -8 nan nan nan nan nan nan nan nan nan nan -2 -2 nan nan nan -0 nan nan nan nan nan nan nan nan nan 0 0 0 0 0 0 0 0 0 0 0 0 0 0 0 0 0 0 0 0 0 0 0 0 0 0 0 0 0 0 0 0 0 0 0
-52 -33 -17 -12 -12 -7 -8 -12 -12 -12 -17 -16 -13 -13 -16 -7 -1 -1 -7 -10 -10 -7 -5 nan nan -6 nan -0 nan nan nan nan nan nan nan nan nan nan nan nan nan nan nan nan nan nan nan nan nan nan nan 0 0 0 0 0 0 0 0 0 0 0 0 0 0 0 0 0 0 0 0 0 0 0 0 0 0 0 0 0 0 0 0 0 0 0
-1 -2 -1 0 0 0 0 0 0 0 0 -2 -9 -9 -8 -2 -5 -5 -10 -8 -8 -6 -4 -4 -4 nan -7 nan nan nan nan nan nan nan nan nan nan nan nan nan nan nan -2 nan nan nan nan nan nan nan nan nan 0 0 0 0 0 0 0 0 0 0 0 0 0 0 0 0 0 0 0 0 0 0 0 0 0 0 0 0 0 0 0 0 0 0
0 0 0 0 0 0 0 0 0 0 0 0 0 0 -3 -6 -5 -5 -5 -4 -4 nan nan nan nan nan -5 -5 nan nan nan nan nan nan nan nan nan nan nan nan nan nan -0 nan nan nan -0 -0 -0 nan nan nan nan nan 0 0 0 0 0 0 0 0 0 0 0 0 0 0 0 0 0 0 0 0 0 0 0 0 0 0 0 0 0 0 0 0
0 0 0 0 0 0 0 0 0 0 0 0 0 0 0 -4 -5 -5 -4 -5 -5 nan nan nan nan nan -3 nan nan nan nan -0 nan nan nan nan -1 -1 nan nan nan nan nan nan nan -5 0 -0 -0 nan nan nan nan nan -3 0 0 0 0 0 0 0 0 0 0 0 0 0 0 0 0 0 0 0 0 0 0 0 0 0 0 0 0 0 0 -7
0 0 0 0 0 0 0 0 0 0 0 0 0 0 0 nan -3 -3 -3 -4 -4 nan nan nan nan nan nan nan nan nan -1 0 nan nan nan nan nan nan nan nan nan nan nan nan nan nan -2 -6 -6 nan nan nan nan nan nan 0 0 0 0 0 0 0 0 0 0 0 0 0 0 0 0 0 0 0 0 0 0 0 0 0 0 0 0 0 0 -8
nan nan 0 0 0 0 0 0 0 0 0 0 0 0 0 -5 -3 -3 -3 -4 -4 nan nan -0 -0 nan nan -3 nan nan nan nan nan nan nan nan nan nan nan nan nan nan nan nan nan nan nan nan nan nan nan nan nan nan nan nan nan nan nan 0 0 0 0 0 0 0 0 0 0 0 0 0 0 0 0 0 0 0 0 0 0 0 -2 -3 -3 -3
nan nan nan nan nan nan nan nan -0 -0 0 0 0 0 0 -6 nan nan nan nan nan nan nan nan nan nan nan nan nan nan nan nan nan nan nan nan nan nan nan nan nan nan nan nan nan nan nan nan nan nan nan nan nan nan nan nan nan nan nan nan nan nan 0 0 0 0 0 0 0 0 0 0 0 0 0 0 0 0 0 0 0 0 -3 -2 -2 -2
nan nan nan nan nan nan nan nan nan nan nan nan nan nan 0 0 nan nan nan nan nan nan nan nan nan nan nan nan nan nan -1 nan nan nan nan nan nan nan nan nan nan nan nan nan nan nan nan nan nan nan -0 -0 nan nan nan nan nan nan nan nan nan nan nan 0 0 0 0 0 0 0 0 0 0 0 0 0 0 0 0 0 0 0 0 -2 -2 -1
nan nan nan nan nan nan nan nan nan nan nan nan nan nan nan nan 0 0 nan nan nan nan nan nan nan nan nan nan nan nan nan nan 0 0 0 nan nan nan nan nan nan nan nan nan nan nan nan nan nan nan nan -5 -0 -0 nan nan nan nan nan nan nan nan nan nan nan nan -0 0 0 0 0 0 0 0 0 0 0 0 0 0 0 0 0 -2 -2 -1
nan nan nan nan nan nan nan nan nan nan nan nan nan nan nan nan nan nan nan nan nan nan nan nan nan nan nan nan nan nan nan nan nan nan 0 nan nan nan nan nan nan nan nan nan nan nan nan nan nan nan nan nan nan nan nan nan nan nan nan nan nan nan nan nan nan nan nan nan nan nan nan 0 0 0 0 0 0 0 0 0 0 0 0 0 0 -0
nan nan nan nan nan nan nan nan nan nan nan nan nan nan nan nan nan nan nan nan nan nan nan nan nan nan nan nan nan nan nan nan nan nan 0 nan nan nan nan nan nan nan nan nan nan nan nan nan nan nan nan nan nan nan nan nan nan nan nan nan nan nan nan nan nan nan nan nan nan nan nan nan nan nan 0 0 0 0 0 0 0 0 0 0 0 0
nan nan nan nan nan nan nan nan nan nan nan nan nan nan nan nan nan nan nan nan nan nan nan nan nan nan nan nan nan nan nan nan nan nan 0 -1 nan nan nan nan nan nan nan nan nan nan nan nan nan nan nan nan nan nan nan nan nan nan nan nan nan nan nan nan nan nan nan nan nan nan nan nan nan nan -1 0 0 0 0 0 0 0 0 0 0 0
nan -6 nan nan nan nan nan nan nan nan nan nan nan nan nan nan nan nan nan nan nan nan nan nan nan nan nan nan nan nan nan nan nan nan -1 nan -1 -1 nan nan nan nan nan nan nan nan nan nan nan nan nan nan nan nan nan nan nan nan nan nan nan nan nan nan nan nan nan nan nan nan nan nan nan nan 0 0 0 0 0 0 0 0 0 0 0 0
-4 -3 nan nan nan nan nan nan nan nan nan nan nan nan nan nan nan nan nan nan nan nan nan nan nan nan nan -1 nan nan nan nan nan nan nan nan nan nan -1 nan nan nan nan nan nan nan nan nan nan nan nan nan -3 -3 nan nan nan nan nan nan nan nan nan nan nan nan nan nan nan nan -0 nan nan nan nan -0 nan nan -0 0 0 0 0 0 0 0
nan nan nan nan nan nan nan nan nan nan nan nan nan nan nan nan nan nan nan nan nan nan nan nan nan nan nan nan nan nan -3 nan nan nan nan nan nan nan nan nan nan nan nan nan nan nan nan nan nan nan nan nan nan nan nan nan nan nan nan nan nan nan nan nan nan nan nan nan -0 -0 nan nan nan nan nan nan nan nan nan nan nan 0 0 -0 -0 0
nan nan nan -0 -0 nan nan nan nan nan nan nan nan nan nan nan nan nan nan nan nan nan nan nan nan nan nan nan nan nan nan nan nan nan nan nan nan nan nan nan nan nan nan nan nan nan nan nan nan nan nan nan nan nan nan nan nan nan nan nan nan nan nan nan nan nan nan nan nan nan nan nan nan nan nan nan nan nan nan nan nan nan -0 -1 -1 -1
-0 nan nan nan nan nan nan nan nan nan nan nan nan nan nan nan nan nan nan nan nan nan nan nan nan nan nan nan nan nan nan nan nan nan nan nan nan nan nan nan nan nan nan nan nan nan nan nan nan nan nan nan nan nan nan nan nan nan 0 nan nan nan nan nan nan nan nan nan nan nan nan nan nan nan nan nan nan nan nan nan nan nan nan nan nan nan
0 -0 nan nan nan nan nan nan nan nan nan nan nan nan nan nan nan nan nan nan nan nan nan nan nan nan nan nan nan nan nan nan nan nan nan nan nan nan nan nan nan nan nan nan nan nan nan nan nan nan nan nan nan nan nan nan nan nan nan nan nan nan nan nan nan nan nan nan nan nan nan nan nan nan nan nan nan nan nan nan nan -0 -0 nan nan nan
nan nan nan nan nan nan nan nan nan nan nan nan nan nan nan nan nan nan nan nan nan nan nan nan nan nan nan nan nan nan nan nan nan nan nan nan nan nan nan nan nan nan nan nan nan nan nan nan nan nan nan nan nan nan nan nan nan nan nan nan nan nan nan nan nan nan nan nan nan nan nan nan nan nan nan nan nan nan nan -0 -0 0 0 -1 -1 nan
nan nan nan nan nan nan nan nan nan nan nan nan nan nan nan nan nan nan nan nan nan nan nan nan nan nan nan nan nan nan nan nan nan nan nan nan nan nan nan nan nan nan nan nan nan nan nan nan nan nan nan nan nan nan nan nan nan nan nan nan nan nan nan nan nan nan nan nan nan nan nan nan nan nan nan nan nan nan nan nan nan nan -0 -0 -0 nan
nan nan nan nan nan nan nan nan nan nan nan nan nan nan nan nan nan nan nan nan nan nan nan nan nan nan nan nan nan nan nan nan nan nan nan nan nan nan nan nan nan nan nan nan nan nan nan nan nan nan nan nan nan nan nan nan nan nan nan nan nan nan nan nan nan nan nan nan nan nan nan nan nan nan nan nan nan nan nan nan nan nan nan nan nan nan
nan nan nan nan nan nan nan nan nan nan nan nan nan nan nan nan nan nan nan nan nan nan nan nan nan nan nan nan nan nan nan nan nan nan nan nan nan nan nan nan nan nan nan nan nan nan nan nan nan nan nan nan nan nan nan nan nan nan nan nan nan nan nan nan nan nan nan nan nan nan nan nan nan nan nan nan nan nan nan nan nan nan nan nan nan nan
nan nan nan nan nan nan nan nan nan nan nan nan nan nan nan nan nan nan nan nan nan nan nan nan nan nan nan nan nan nan nan nan nan nan nan nan nan nan nan nan nan nan nan nan nan nan nan nan nan nan nan nan nan nan nan nan nan nan nan nan nan nan nan nan nan nan nan nan nan nan nan nan nan nan nan nan nan nan nan nan nan nan nan nan nan nan
nan nan nan nan nan nan nan nan nan nan nan nan nan nan nan nan nan nan nan nan nan nan nan nan nan nan nan nan nan nan nan nan nan nan nan nan nan nan nan nan nan nan nan nan nan nan nan nan nan nan nan nan nan nan nan nan nan nan nan nan nan nan nan nan nan nan nan nan nan nan nan nan nan nan nan nan nan nan nan nan nan nan nan nan nan -0
nan nan nan nan nan nan nan nan nan nan nan nan nan nan nan nan 0 0 nan nan nan nan nan nan nan nan nan nan nan nan nan nan nan nan nan nan nan nan nan nan nan nan nan nan nan nan nan nan nan nan nan nan nan nan nan nan nan nan nan nan nan nan nan nan nan nan nan nan nan nan nan nan nan nan nan nan nan nan nan nan nan nan nan nan nan nan
nan nan nan nan nan nan nan nan nan nan nan nan nan nan nan nan nan nan nan nan nan nan nan nan nan nan nan nan nan nan nan nan nan nan nan nan nan nan nan nan nan nan nan nan nan nan nan nan nan nan nan nan nan nan nan nan nan nan nan nan nan nan nan nan nan nan nan nan nan nan nan nan nan nan nan nan nan nan nan nan nan nan nan nan nan nan
nan nan nan nan nan nan nan nan nan nan nan nan nan nan nan nan nan nan nan nan nan nan nan nan nan nan nan nan nan nan nan nan nan nan nan nan nan nan nan nan nan nan nan nan nan nan nan nan nan nan nan nan nan nan nan nan nan nan nan nan nan nan nan nan nan nan nan nan nan nan nan nan nan nan nan nan nan nan nan nan nan nan nan nan nan nan
Wind_Speed
6 6 6 8 8 7 7 7 8 9 9 8 8 8 8 10 10 10 12 12 12 12 11 12 12 12 13 15 19 23 26 28 30 31 32 32 32 33 33 33 33 33 33 33 33 33 33 32 32 32 32 32 32 32 32 31 31 31 31 31 31 31 30 30 31 31 32 32 32 33 33 32 31 30 30 31 31 32 31 31 31 31 31 32 32 31
6 6 6 8 8 8 8 8 8 8 9 10 10 9 9 10 10 9 10 11 12 12 11 11 11 11 11 13 18 23 27 28 30 31 31 32 32 32 32 32 32 32 32 32 32 32 32 32 32 32 32 32 32 32 32 32 31 31 31 31 30 30 30 30 31 31 31 32 32 33 33 33 32 31 31 31 31 31 31 31 31 31 30 30 30 30
7 7 6 6 7 7 8 9 8 8 9 10 10 10 11 11 10 9 9 10 10 10 9 8 9 9 11 13 17 22 26 28 29 30 31 31 31 31 31 31 32 32 32 32 32 32 32 32 32 32 32 32 32 31 31 31 31 31 31 30 30 30 30 30 30 31 31 31 31 32 32 33 32 32 32 31 31 31 31 31 30 30 29 29 28 29
7 7 7 5 5 6 7 9 9 9 9 10 10 11 11 10 9 9 9 9 9 8 7 8 9 10 10 11 14 19 25 27 29 30 30 30 30 31 31 31 31 31 31 31 31 31 31 31 32 32 32 31 31 31 31 31 31 31 31 30 30 30 30 30 30 30 30 30 30 31 31 31 32 32 32 32 32 31 31 31 30 29 29 28 29 29
7 7 7 6 6 6 7 8 9 9 9 9 9 10 10 9 9 9 9 8 8 7 7 8 9 10 10 10 12 17 23 27 28 29 29 29 30 30 30 31 31 31 31 31 31 31 31 31 31 31 31 31 31 32 32 32 32 31 31 31 30 30 30 30 30 30 30 30 30 30 30 30 30 31 32 32 32 31 31 30 30 29 28 28 29 30
7 6 5 5 6 6 7 8 8 8 8 7 8 9 9 8 8 7 7 7 7 8 8 8 9 10 10 11 13 18 23 26 27 28 28 28 29 29 30 30 30 30 30 30 30 30 31 31 31 31 31 31 32 32 32 32 32 31 31 31 30 30 30 30 30 30 30 30 30 29 29 29 29 30 31 31 31 31 31 30 30 29 29 29 29 30
7 6 4 5 6 6 7 7 7 6 6 6 7 8 8 7 7 7 7 7 7 7 8 8 8 9 10 11 14 17 20 22 23 25 26 27 27 28 28 28 28 29 29 29 29 30 30 31 31 31 31 32 32 32 32 32 31 31 30 30 30 30 31 31 30 30 30 30 30 30 30 30 30 30 30 31 31 31 31 30 30 30 29 29 30 30
8 7 6 7 7 7 6 5 5 5 6 6 7 7 7 7 7 7 8 7 7 7 7 8 8 8 9 10 11 13 13 14 15 17 18 20 22 24 25 26 27 28 28 29 29 30 30 31 31 31 31 31 31 31 31 31 31 30 30 30 30 31 31 31 31 31 31 31 31 31 31 31 31 31 30 31 31 31 31 31 30 30 30 30 30 31
10 10 9 8 8 7 6 5 5 5 5 6 6 7 7 8 8 8 7 7 7 6 7 8 8 9 8 8 9 10 11 12 12 12 13 14 15 17 19 22 24 26 27 28 29 30 30 31 31 31 31 30 30 30 30 30 30 30 30 30 30 31 31 31 31 31 31 32 32 32 32 32 32 31 31 31 31 31 31 31 31 31 31 31 31 31
10 10 10 8 6 5 5 5 5 5 5 5 5 6 7 9 9 9 9 8 7 6 7 8 9 9 9 8 8 8 10 12 15 16 17 18 18 19 20 21 21 22 25 28 29 30 30 30 30 29 29 29 29 30 30 30 30 30 30 30 30 30 31 31 31 31 31 32 32 32 32 32 32 32 32 31 31 31 31 30 31 31 31 31 32 32
10 10 8 6 5 4 4 5 5 5 5 5 5 6 6 7 9 10 11 10 9 7 7 8 8 8 9 8 8 8 9 10 12 14 16 18 20 22 22 22 22 23 26 27 28 28 28 29 28 28 28 29 29 29 29 29 30 30 30 30 30 30 30 31 31 31 31 32 32 32 32 32 31 31 31 31 31 31 31 30 30 31 31 31 32 32
9 7 6 4 4 4 4 4 4 4 5 6 7 7 8 7 7 8 10 11 10 10 9 8 8 7 8 9 9 9 9 9 9 9 9 11 12 13 15 15 16 18 20 21 22 24 25 26 27 27 27 27 27 28 28 28 28 29 29 30 30 30 30 31 31 31 31 32 32 32 31 31 31 31 31 31 31 31 31 31 31 31 31 32 32 33
7 5 3 3 4 4 5 5 5 5 6 6 7 8 8 7 6 6 7 9 10 10 10 10 9 8 8 8 8 8 8 9 8 8 7 7 7 7 7 8 9 10 11 12 13 15 18 21 23 24 25 25 26 27 28 28 29 29 29 30 30 30 31 31 31 31 31 31 31 31 31 31 31 31 31 31 31 31 31 31 31 31 31 32 32 33
5 3 3 3 4 5 5 6 7 7 7 7 7 8 7 7 6 7 8 9 10 10 10 11 10 10 8 8 7 7 7 8 8 7 7 6 5 5 6 7 8 8 8 9 9 11 14 16 16 17 20 23 24 25 26 26 28 29 30 30 30 30 31 30 30 30 31 30 30 30 31 30 31 31 31 31 31 31 31 31 31 31 31 31 32 32
4 4 5 6 6 6 6 7 8 8 8 7 6 6 6 6 7 7 8 9 10 9 9 11 11 10 8 6 5 5 6 6 6 6 7 7 6 5 7 8 9 9 9 9 9 11 13 13 12 12 14 17 19 21 23 24 26 28 29 30 30 30 31 31 31 31 31 31 31 31 31 30 31 31 31 31 31 31 31 31 30 31 31 31 31 31
5 6 8 8 8 7 7 7 7 8 8 7 6 6 7 7 7 7 8 9 9 8 8 9 10 10 8 6 5 5 5 6 6 7 9 9 8 7 8 9 10 10 10 10 10 10 10 10 11 11 12 15 20 23 26 26 28 29 30 30 31 31 31 31 31 31 31 31 31 31 31 31 31 31 31 31 31 31 31 31 31 31 31 31 31 31
6 7 8 8 8 8 8 7 7 7 7 6 6 6 7 7 7 7 7 7 7 7 6 7 8 8 7 6 5 5 5 6 6 7 9 10 10 9 8 9 10 11 11 10 10 10 9 9 9 9 10 15 21 25 27 28 29 30 31 31 31 31 31 32 32 32 32 32 32 31 31 31 31 31 31 31 31 31 31 31 31 31 31 31 31 31
7 7 7 8 8 8 8 7 6 6 6 7 7 8 7 7 7 7 7 7 7 7 7 7 7 7 7 8 7 6 6 6 7 8 10 11 11 10 9 10 10 11 11 11 10 9 9 9 9 9 12 18 23 27 29 30 30 31 31 31 31 31 31 31 32 32 32 31 31 31 31 31 31 31 31 31 31 31 31 31 31 31 31 31 31 31
7 6 6 7 7 7 7 6 6 6 7 7 8 8 8 8 7 7 7 7 7 8 8 8 8 8 8 9 9 8 7 7 8 9 10 11 11 11 10 10 10 11 11 10 10 9 9 9 11 14 19 24 27 29 30 30 30 30 30 30 30 31 31 31 31 31 31 31 31 31 31 31 31 31 31 30 31 31 31 31 31 31 31 31 31 31
7 7 6 6 7 7 7 7 7 8 8 8 8 8 8 8 7 7 8 8 8 8 8 9 9 9 8 10 10 10 9 8 8 9 9 11 11 11 10 10 10 10 10 9 9 8 8 9 10 14 19 23 26 28 28 29 29 29 29 30 30 30 30 30 30 30 30 30 30 30 30 30 30 30 30 30 30 30 31 31 31 31 31 31 31 32
8 8 6 5 5 6 7 7 8 10 10 10 9 8 7 7 8 8 9 9 9 9 8 8 9 9 9 10 11 10 9 8 8 7 7 8 9 9 8 9 9 10 10 9 8 8 8 8 8 10 13 18 22 25 27 28 28 29 29 30 30 30 30 30 30 30 30 31 31 31 31 30 30 30 31 30 30 30 31 31 31 31 31 31 31 32
7 8 7 7 7 7 8 9 10 11 11 10 8 7 7 8 9 9 9 9 9 9 9 9 9 9 10 11 11 11 9 7 7 6 5 7 8 8 7 7 8 9 10 9 8 7 7 8 8 9 13 19 23 26 27 28 29 29 30 30 30 30 30 30 30 31 31 31 31 31 31 31 31 31 31 30 30 30 30 30 30 30 30 31 31 31
8 8 9 8 8 8 9 9 9 9 9 9 8 8 7 7 8 9 9 8 8 8 9 9 9 10 10 10 11 10 9 7 6 5 5 7 9 8 6 7 8 9 10 9 8 8 9 9 9 10 13 20 24 27 28 29 29 30 30 30 30 30 30 30 30 30 30 30 30 31 31 31 31 31 30 30 30 30 30 30 30 30 31 31 31 31
8 9 9 8 8 8 8 8 8 8 8 9 9 9 8 8 9 9 9 8 8 8 9 9 10 10 10 10 10 10 8 7 5 5 5 6 8 8 7 7 9 10 11 9 9 9 10 10 9 10 11 17 22 26 27 28 29 30 30 30 30 30 30 30 30 30 30 30 30 30 31 31 31 31 30 30 30 30 30 31 31 31 31 31 32 32
8 8 8 8 10 11 13 13 14 14 13 11 10 10 10 11 11 11 9 9 9 9 9 9 10 10 9 10 10 9 7 7 5 5 5 5 7 8 7 7 8 10 11 9 9 9 10 11 10 10 10 14 19 23 26 28 29 29 29 29 29 29 29 29 29 29 29 29 29 30 30 30 30 30 30 30 30 31 31 31 31 31 31 31 32 32
13 13 13 16 19 22 25 25 24 23 22 18 14 11 10 10 10 9 9 8 8 8 9 9 10 10 8 8 8 8 7 6 5 5 5 5 6 7 6 6 7 9 11 10 9 9 11 11 11 10 9 11 15 19 23 26 27 28 28 28 28 28 28 28 28 28 29 29 29 29 30 30 30 30 30 30 30 30 31 31 31 31 31 31 31 30
19 21 23 25 26 27 28 28 28 28 27 24 21 17 14 11 10 9 9 8 8 8 9 9 10 10 9 8 8 8 8 7 6 5 5 5 6 6 6 5 7 9 10 10 9 10 12 12 12 11 10 10 11 14 19 23 25 25 26 26 26 27 27 28 28 29 29 29 30 30 30 30 30 30 30 30 31 31 31 31 31 31 31 29 26 24
19 21 23 25 26 26 26 26 26 25 25 25 25 23 18 12 10 9 9 8 8 8 9 10 10 10 9 8 8 8 9 8 7 6 5 5 5 5 6 6 7 8 9 9 9 10 12 12 11 10 10 9 9 10 14 18 20 22 23 25 26 27 28 28 29 29 29 29 29 29 29 30 30 30 30 30 31 31 31 31 31 30 29 25 19 16
17 20 22 23 24 24 24 23 22 22 23 24 23 21 16 10 8 8 9 8 8 9 10 10 10 9 9 9 9 8 8 8 7 6 5 5 5 6 6 7 8 8 8 8 8 8 9 9 8 8 8 10 9 8 9 12 14 16 19 22 25 26 27 28 28 28 28 28 28 29 29 29 29 30 30 30 30 30 30 30 29 26 21 17 14 12
13 15 16 17 17 17 17 16 16 18 20 21 21 19 14 9 7 7 8 8 8 9 10 10 10 9 9 8 8 8 7 6 6 6 6 5 5 6 6 8 8 8 6 6 6 6 7 6 6 7 8 10 10 8 8 9 10 11 12 16 18 21 23 25 26 27 27 27 28 28 28 28 28 29 29 29 29 30 30 30 27 22 14 12 11 10
10 11 11 11 10 10 10 10 11 12 14 16 16 14 11 8 7 7 7 7 7 8 9 10 10 9 9 7 7 6 6 6 7 7 7 5 5 5 7 8 9 8 6 5 5 6 7 6 6 6 8 10 10 9 9 9 9 9 9 10 12 14 18 22 24 25 25 26 26 27 27 27 28 28 28 29 29 29 29 29 26 21 13 11 10 10
10 10 9 8 8 8 8 8 8 8 9 9 9 9 9 8 8 7 7 7 7 7 8 9 10 9 9 8 7 7 6 7 9 10 8 6 5 5 6 7 8 8 7 6 6 6 7 6 6 7 8 9 10 10 10 10 9 9 9 9 9 11 14 18 19 20 20 21 23 24 26 26 27 28 28 28 29 29 29 30 27 22 14 12 11 11
10 9 8 8 8 7 7 7 7 6 7 6 7 7 7 8 8 8 7 7 7 7 8 9 9 10 9 9 8 8 8 9 11 12 11 7 5 5 6 7 8 9 8 7 7 7 6 7 7 8 9 9 9 9 10 10 9 9 9 9 9 9 12 13 14 14 15 16 17 19 22 23 25 26 27 28 28 29 29 29 28 24 18 13 11 11
10 9 9 8 7 7 6 6 6 7 6 6 7 7 7 7 8 8 8 7 7 7 7 8 9 9 9 9 9 9 9 10 12 13 12 8 6 5 7 8 8 9 9 8 7 7 7 8 8 8 8 9 9 9 9 9 9 9 8 8 8 9 10 10 10 11 12 12 12 13 15 16 19 21 23 25 26 26 27 28 28 27 24 17 14 12
9 9 8 8 7 7 7 7 7 7 7 7 7 7 7 7 7 8 8 8 8 7 7 8 8 8 9 9 9 9 10 11 12 13 12 9 7 6 7 7 8 8 8 8 7 7 6 8 10 10 9 9 9 8 7 8 8 8 7 7 8 9 9 9 9 10 11 11 11 11 11 11 12 14 16 18 21 23 26 27 28 29 28 25 20 15
8 8 8 7 7 7 7 8 8 8 7 7 7 7 7 8 8 8 8 8 8 8 9 9 8 8 8 9 9 10 11 11 12 13 13 11 8 7 6 7 8 8 8 8 8 7 7 9 10 10 11 10 9 8 7 7 7 7 8 8 8 9 10 10 10 10 10 10 10 10 10 10 10 11 12 17 21 25 27 28 29 30 30 30 28 24
8 8 8 7 7 7 8 8 8 8 8 7 7 7 8 8 8 9 8 8 9 9 9 10 10 10 11 10 10 11 11 11 12 13 14 12 10 8 7 7 8 9 8 9 8 9 9 9 10 10 10 9 8 8 8 8 8 8 8 8 9 9 10 10 9 9 9 10 11 11 10 10 11 11 12 17 20 22 24 26 27 28 29 31 31 31
8 8 8 7 7 7 8 8 8 8 8 8 8 8 9 9 10 10 9 9 9 10 10 10 10 11 14 14 14 14 14 14 15 16 16 13 11 9 8 8 9 9 8 8 9 9 9 9 10 10 9 8 9 10 10 10 9 9 9 9 9 9 10 9 9 8 9 10 11 11 12 11 11 11 11 13 13 13 14 16 18 20 23 25 27 29
8 8 8 8 8 8 8 8 8 8 8 8 9 9 9 10 11 11 10 9 9 10 10 10 10 10 12 14 15 16 16 16 16 16 15 13 11 10 9 9 9 9 9 8 8 8 9 9 9 9 9 9 9 10 10 10 10 10 10 10 9 9 9 9 8 8 9 9 10 12 12 11 10 10 10 10 10 10 11 11 12 14 15 14 16 20
8 8 8 9 8 8 8 8 9 8 8 9 10 10 10 9 9 9 9 9 9 10 10 11 10 10 11 11 12 13 13 13 13 13 12 11 10 9 9 9 9 9 9 8 8 8 8 9 9 10 10 9 9 10 10 10 10 11 11 9 8 8 9 9 9 9 9 9 10 10 10 10 10 10 10 10 10 10 10 10 10 11 11 10 9 10
8 8 8 8 8 9 9 9 9 9 9 9 9 8 8 8 8 8 8 8 8 8 9 9 9 9 9 9 9 10 11 11 12 12 10 11 11 10 9 8 8 8 8 8 8 8 8 9 10 10 10 10 10 11 11 11 12 13 13 11 10 10 11 11 11 10 9 8 9 9 10 10 11 11 10 10 10 10 10 10 10 10 10 9 8 8
9 9 9 8 8 8 8 9 9 10 9 9 8 8 8 7 8 8 8 8 8 8 8 8 8 9 9 9 9 9 9 9 10 10 11 11 11 10 9 9 8 8 8 8 8 8 8 9 10 10 10 10 9 10 10 11 12 12 11 11 11 11 12 11 9 7 7 8 8 9 11 10 10 9 10 10 10 10 10 11 11 12 11 9 9 9
9 8 8 8 8 9 9 10 10 9 8 8 8 7 7 7 7 8 9 9 9 9 9 8 8 9 9 9 9 9 7 7 8 9 9 9 10 10 9 9 9 8 7 7 8 8 9 9 9 9 9 9 9 9 11 11 11 11 10 11 10 9 7 8 8 7 8 9 9 9 9 9 9 9 9 9 9 9 10 11 12 13 12 9 8 8
8 8 8 8 8 8 8 8 8 8 8 8 8 8 7 7 8 8 9 8 9 9 9 8 8 8 8 9 10 10 8 7 7 8 8 9 8 8 8 8 8 8 7 7 7 8 8 9 9 9 9 8 8 9 10 10 10 10 10 10 10 9 8 8 9 10 10 10 9 9 9 9 9 9 8 8 8 8 8 8 8 9 10 9 8 7
8 8 8 8 8 8 8 8 8 8 8 8 8 8 8 8 8 8 8 8 9 9 8 8 7 7 7 8 9 9 9 8 7 6 6 7 9 10 8 7 7 7 7 7 7 7 8 8 9 9 8 8 8 8 9 10 10 10 11 11 11 10 10 10 11 10 10 10 10 10 10 9 9 8 8 8 7 7 7 7 7 8 8 7 7 7
7 8 8 8 8 8 9 9 9 8 8 8 8 8 8 8 8 8 8 9 9 9 8 8 7 7 8 9 9 9 8 8 8 7 6 6 6 6 6 6 6 6 6 7 7 8 8 9 9 9 8 8 8 9 9 9 9 9 10 10 10 10 10 10 10 10 10 10 10 10 10 10 9 8 7 8 7 7 6 7 7 7 8 7 7 6
8 8 8 8 8 8 9 9 9 9 9 9 8 8 8 8 7 8 8 8 8 8 8 8 7 7 8 9 9 8 9 9 9 9 8 7 7 6 6 5 6 6 6 7 8 8 9 9 9 9 8 7 8 8 9 8 8 8 9 9 10 10 10 10 10 10 9 9 9 10 11 10 8 8 8 8 7 7 6 6 6 6 7 6 6 6
8 8 9 8 9 9 9 9 9 9 9 9 9 8 8 8 8 9 8 8 8 8 8 8 8 8 8 8 8 8 9 9 9 9 9 8 8 7 7 6 6 6 6 7 8 9 9 10 10 10 9 7 7 7 8 8 8 8 8 8 9 9 9 10 10 10 9 9 10 11 11 9 8 8 9 8 8 7 6 6 5 5 5 6 6 6
8 8 8 9 9 9 9 9 9 9 9 9 9 9 8 9 10 10 8 8 8 7 7 8 8 8 8 8 8 8 9 9 9 8 8 8 8 7 8 8 7 7 6 6 6 6 7 8 9 10 9 8 8 8 8 8 8 8 8 8 8 8 9 10 10 10 10 10 11 12 11 9 8 8 8 8 9 8 8 7 6 5 5 5 5 5
8 8 8 8 8 9 9 9 9 9 9 10 10 9 9 8 8 8 7 7 7 7 7 8 8 8 9 9 8 8 8 8 8 8 8 7 7 7 7 8 8 8 8 7 6 5 5 5 5 6 9 9 9 8 7 7 8 8 7 7 7 8 9 9 10 10 10 10 11 11 11 9 9 8 7 8 9 9 9 8 7 6 5 5 5 5
8 8 8 8 8 9 9 9 9 9 9 10 10 9 9 9 8 8 7 7 7 7 8 8 8 8 8 9 9 8 8 8 8 8 8 7 7 7 7 7 8 8 8 8 7 7 6 6 5 4 4 5 6 6 5 6 7 7 7 7 8 8 8 9 10 10 11 11 10 10 10 9 9 9 8 8 9 9 9 9 9 9 8 7 7 7
Wind_Direction
287 292 295 299 298 295 294 298 299 298 297 296 294 291 288 287 286 286 287 289 290 289 287 283 280 279 280 283 284 284 284 285 287 288 289 289 288 288 288 288 288 287 287 287 287 287 287 287 288 288 288 288 288 288 287 286 285 284 284 283 282 282 282 281 280 279 278 278 277 276 276 275 275 274 273 272 271 270 267 265 263 262 261 262 263 264
289 290 292 299 299 297 296 297 295 292 293 294 294 293 292 291 290 289 289 288 287 285 285 284 284 284 284 282 281 282 283 284 286 287 287 287 287 287 287 287 287 287 287 288 288 289 289 290 290 290 290 290 289 288 287 286 285 284 283 282 282 281 281 280 279 277 276 276 276 276 276 276 275 273 272 270 270 269 268 267 266 265 265 266 267 268
296 295 295 299 299 297 296 298 295 290 288 291 293 294 295 293 292 290 289 287 286 285 286 287 286 283 279 276 277 279 281 283 284 284 285 285 286 286 287 288 288 288 289 289 290 290 291 291 291 291 290 289 288 287 286 285 284 283 283 282 282 281 281 279 278 277 276 276 276 276 276 276 276 275 273 271 270 270 270 270 270 270 270 271 271 271
296 297 301 301 296 292 291 295 295 294 292 292 294 295 294 291 288 285 283 285 287 288 286 283 280 277 276 274 274 276 279 280 281 282 284 285 286 288 289 290 290 290 290 290 290 290 291 291 290 290 289 287 286 285 284 284 283 283 283 283 282 281 280 279 277 277 276 276 276 276 276 277 277 277 276 274 273 272 272 272 273 273 272 272 271 270
294 296 301 302 297 292 290 291 293 295 295 295 295 293 290 285 282 281 283 285 286 284 281 277 275 275 276 275 274 275 278 280 281 283 285 286 288 289 290 290 290 289 289 288 288 288 288 288 287 287 286 285 284 283 283 282 282 282 283 282 282 281 280 278 278 277 276 276 275 276 276 277 277 277 277 276 275 274 273 273 272 272 271 270 269 269
294 295 299 298 295 293 293 293 294 296 297 293 289 286 284 281 281 282 284 285 283 281 278 277 276 276 276 276 277 279 281 283 285 286 287 287 288 288 288 288 287 286 286 286 286 286 286 285 285 284 283 283 283 282 282 282 282 282 282 282 281 281 280 280 279 279 278 277 277 277 277 278 278 278 278 277 276 275 273 272 271 270 269 269 269 269
295 293 293 289 286 285 288 291 293 293 289 284 283 284 283 284 284 284 283 282 281 280 280 278 278 278 278 280 283 285 286 287 287 287 286 286 285 285 285 284 284 284 284 284 284 284 284 284 283 283 283 283 283 283 283 283 283 283 282 282 282 282 282 282 282 281 281 280 279 279 279 278 278 278 278 278 276 275 274 272 271 271 270 270 270 270
294 292 287 283 282 283 282 280 278 275 273 278 285 290 293 291 287 284 282 279 279 280 283 284 284 284 285 287 288 288 286 284 283 282 282 281 281 282 282 283 283 283 283 283 284 284 284 283 283 283 283 283 284 285 285 285 285 285 284 284 284 284 284 284 284 283 283 282 281 280 279 278 277 277 277 276 275 274 273 273 272 271 271 271 270 270
289 288 284 279 279 281 283 273 266 265 274 284 292 297 299 296 292 288 285 283 283 286 291 295 295 294 293 293 290 287 283 279 277 275 276 276 276 278 280 282 283 283 284 284 284 284 284 283 283 283 284 286 287 287 288 287 287 286 285 285 284 284 284 284 284 283 283 282 281 279 278 276 276 275 275 274 273 273 272 272 271 271 271 270 269 269
280 279 279 277 273 271 275 279 281 285 293 295 294 292 292 295 295 295 294 293 293 295 296 297 297 297 296 293 289 284 281 278 277 276 277 277 278 280 281 282 283 283 283 284 284 284 284 285 285 285 286 287 287 287 287 287 286 285 284 284 283 283 282 282 282 282 281 281 280 279 277 276 275 274 273 273 272 272 271 271 270 270 269 268 267 267
277 275 274 273 267 259 264 283 294 304 310 300 291 284 282 289 296 300 301 301 301 300 297 293 293 293 295 294 289 284 281 279 277 276 276 277 279 281 282 282 282 282 283 284 285 286 286 286 286 286 286 286 286 286 285 285 284 283 282 281 281 280 280 280 280 280 280 280 280 279 278 277 276 275 274 273 273 272 271 270 269 268 267 266 265 264
275 274 270 268 271 278 286 294 299 303 304 300 296 295 293 296 299 302 303 302 302 300 297 292 288 287 289 291 291 288 284 281 279 277 275 274 275 277 279 280 280 281 283 284 285 285 286 285 285 284 284 284 284 284 283 282 281 280 280 280 280 280 280 280 280 280 280 280 280 279 279 278 277 276 275 273 272 271 270 269 267 266 265 264 263 262
270 267 264 278 291 300 303 304 303 302 301 301 302 303 304 306 307 304 298 295 294 294 293 291 288 286 286 288 289 289 286 283 281 280 279 277 278 279 281 281 280 280 281 282 282 282 283 284 284 283 283 283 282 281 281 281 280 280 280 280 280 280 280 279 279 279 278 278 278 277 277 276 275 274 272 271 270 268 267 266 265 264 263 262 261 261
271 275 283 294 300 303 304 304 304 304 303 302 302 302 303 305 304 298 291 288 287 288 289 289 289 289 290 290 289 287 285 284 283 283 282 282 284 288 290 287 284 283 283 283 281 280 280 282 282 281 280 279 279 279 279 279 279 279 279 279 278 278 278 277 277 276 276 275 275 274 273 273 272 271 270 269 268 267 266 265 264 263 263 262 262 262
294 304 305 302 302 303 304 304 303 301 300 302 302 301 300 297 294 290 287 287 289 290 290 289 288 288 288 290 291 289 287 287 287 288 287 286 286 288 291 289 287 285 284 282 280 278 278 277 276 274 273 273 273 274 275 276 277 277 278 278 278 277 277 276 276 275 275 275 274 274 273 272 272 271 270 270 269 268 267 266 266 265 265 264 264 264
311 309 305 304 303 303 303 303 301 300 300 301 300 298 294 291 289 287 287 290 292 294 294 294 293 292 289 288 289 292 294 293 292 291 291 289 289 290 291 290 287 284 281 278 277 276 275 271 268 266 266 268 271 274 276 277 278 278 279 279 279 278 278 278 277 277 277 276 276 275 274 274 273 272 271 271 270 269 268 267 266 266 265 265 265 265
309 306 303 303 302 301 301 300 298 297 298 297 293 289 285 285 286 287 289 292 295 297 295 297 298 298 297 296 295 296 301 299 295 291 290 289 290 291 291 288 285 282 279 275 274 272 271 268 265 263 263 268 272 275 278 279 280 281 281 281 281 280 280 279 278 278 277 276 275 274 274 273 272 271 270 269 268 267 266 266 265 264 263 263 263 263
302 301 301 299 299 299 300 299 297 295 294 291 288 285 282 282 283 286 289 293 296 296 294 293 292 294 298 300 302 306 311 303 296 292 290 288 289 291 291 286 282 279 277 275 272 270 268 264 261 260 264 270 275 278 280 282 283 283 283 282 282 281 280 279 278 277 276 275 273 272 271 270 269 268 267 267 266 265 264 264 263 262 262 262 261 261
297 296 296 296 295 296 297 296 295 293 291 288 289 290 288 287 286 286 289 294 294 293 292 292 291 290 291 292 297 304 312 304 297 292 288 288 289 291 292 286 280 277 275 274 272 271 268 263 262 265 269 274 277 280 282 283 283 283 282 282 281 280 280 279 277 276 275 274 273 272 271 270 269 268 268 267 266 266 265 265 264 264 263 262 262 262
295 294 291 292 294 294 293 290 288 288 288 290 292 292 290 289 288 289 291 294 293 290 288 288 288 289 290 291 295 301 309 304 296 288 283 284 286 289 290 286 281 277 274 273 273 272 268 263 263 266 270 273 277 279 281 281 282 281 281 281 281 281 280 279 278 278 277 276 275 274 273 273 272 271 270 270 269 269 268 267 266 265 264 264 263 262
291 289 285 286 288 289 288 287 287 288 290 292 291 288 287 290 291 292 294 294 292 290 287 285 286 289 292 293 295 299 305 301 292 284 279 280 282 285 288 285 281 278 276 275 273 270 265 262 261 261 264 269 273 277 279 281 282 282 282 282 282 281 280 280 279 279 278 278 277 277 276 275 274 273 272 272 271 270 269 268 267 266 265 264 263 262
283 283 282 281 280 279 281 284 287 289 291 292 292 292 295 296 295 294 294 293 292 290 288 286 286 288 291 290 291 293 297 291 284 280 279 279 280 282 287 285 281 278 276 277 276 272 265 262 260 260 264 271 276 279 281 282 283 283 283 282 281 281 280 280 279 279 279 278 278 277 277 276 275 274 273 272 271 270 270 268 267 266 265 264 262 261
273 276 281 281 280 279 280 283 286 289 291 292 293 293 292 292 292 292 294 293 291 289 286 285 285 285 285 285 287 289 289 284 278 275 276 278 282 285 290 288 284 281 277 279 280 278 274 270 268 268 271 275 278 281 282 282 282 282 282 281 281 281 280 280 280 279 279 278 278 277 277 276 275 274 273 272 271 270 269 268 267 266 265 263 262 261
276 280 283 283 282 282 284 288 293 296 297 296 294 291 289 288 288 288 289 289 288 286 285 285 285 285 284 285 286 288 288 286 282 276 273 275 280 285 291 291 287 284 281 283 285 285 283 279 274 271 270 274 276 278 280 281 281 282 282 282 281 281 281 281 280 279 278 278 277 276 275 274 273 272 271 271 270 269 268 267 266 265 264 262 261 260
288 288 288 289 291 294 297 299 301 302 302 300 298 296 294 293 291 290 287 286 285 285 285 285 286 286 288 290 290 290 291 291 287 280 275 275 279 283 288 290 289 287 286 287 288 286 283 280 276 272 268 271 274 277 279 280 281 281 282 282 282 282 282 281 280 279 278 277 276 276 275 275 274 273 273 272 271 269 268 267 266 265 264 263 262 261
298 298 299 300 301 302 303 303 303 303 303 302 301 300 299 298 295 292 288 286 286 287 288 286 286 287 289 291 291 292 294 293 289 281 276 277 281 284 289 290 287 286 287 288 287 286 284 283 281 279 275 272 273 274 276 278 279 280 281 282 283 283 283 283 282 282 281 281 281 280 280 279 278 277 276 275 273 272 270 269 268 268 267 266 265 264
302 303 304 305 305 306 305 305 304 304 304 303 303 302 301 300 297 293 288 289 291 292 291 289 289 289 290 289 289 291 296 297 293 286 280 279 281 284 289 290 287 286 288 289 289 289 288 287 286 284 279 274 271 270 271 274 277 279 282 284 285 286 287 287 287 287 286 286 285 284 283 282 281 279 278 276 275 273 272 271 270 269 268 267 266 264
307 308 309 308 307 306 305 305 305 305 304 303 302 302 301 299 295 291 289 292 293 292 289 288 289 290 290 290 290 292 296 295 293 290 286 281 278 280 288 292 291 291 291 290 289 288 287 287 285 283 279 274 270 268 269 274 278 282 286 287 288 289 289 289 288 288 287 286 284 283 282 280 279 277 276 274 273 272 271 270 269 268 267 265 262 259
308 308 307 306 305 304 304 304 303 302 301 301 301 301 300 296 290 286 288 291 292 289 287 287 287 288 288 288 289 289 290 289 291 295 298 288 279 279 289 294 294 294 294 292 290 286 282 281 281 282 282 282 281 278 276 279 282 284 286 286 286 286 286 285 285 285 284 283 282 281 280 278 277 276 275 274 273 272 271 270 269 268 265 261 257 252
306 305 303 302 302 301 300 299 297 296 297 298 299 299 298 291 283 280 282 286 286 285 286 288 288 288 288 290 289 288 284 287 296 304 307 294 284 283 293 294 295 297 299 298 294 289 283 279 280 285 289 291 291 288 283 281 279 278 277 279 280 280 281 281 282 282 282 282 281 281 280 279 279 278 278 277 276 275 274 273 272 270 265 260 254 249
305 303 299 298 296 295 292 289 289 290 292 295 297 297 295 289 281 277 278 280 281 282 284 287 288 288 289 290 289 288 285 293 302 308 307 293 283 284 294 294 295 297 299 298 297 295 294 290 288 291 294 295 293 289 285 281 277 274 271 273 275 276 277 280 281 282 282 282 282 282 282 282 281 280 279 278 278 277 276 275 273 271 266 260 254 250
302 299 296 294 292 289 286 285 285 286 289 292 293 293 292 289 286 282 280 280 279 279 281 284 285 285 284 281 279 279 282 291 300 304 303 291 281 282 290 290 292 294 295 290 288 289 292 294 298 300 300 296 293 289 286 283 279 276 274 275 274 275 276 280 281 283 283 283 283 283 282 281 280 279 278 277 276 275 274 273 271 268 262 257 252 250
299 297 294 292 289 286 283 284 285 287 289 291 292 292 292 291 289 287 284 280 278 277 279 281 283 283 281 277 274 274 277 285 293 298 300 293 284 281 286 288 290 291 292 288 283 279 278 285 294 299 298 294 291 289 288 285 283 279 277 277 276 276 278 280 281 281 281 281 281 280 279 278 277 276 275 275 274 273 272 271 268 265 260 255 250 247
297 296 293 291 289 287 287 289 291 293 295 295 296 296 294 293 291 289 286 282 278 276 275 277 279 281 282 280 277 276 278 282 289 295 299 292 284 280 285 287 288 290 292 290 286 282 276 281 288 294 295 293 291 288 287 287 285 283 278 277 276 277 279 280 280 279 278 278 277 276 275 274 273 273 272 272 271 270 269 268 266 263 259 255 250 246
296 294 293 293 293 295 297 299 299 300 300 299 298 297 295 293 291 288 286 283 280 276 273 271 272 273 276 278 279 280 281 284 290 294 296 289 283 280 283 283 286 288 290 289 288 287 282 285 288 291 293 294 291 287 284 284 284 283 279 276 275 276 278 279 278 277 277 275 273 271 268 267 266 266 266 266 266 266 266 266 264 262 259 256 252 247
296 296 297 299 301 303 305 305 305 305 304 301 298 296 295 293 291 288 286 283 282 280 277 273 270 268 267 269 272 275 279 283 288 291 291 286 282 279 278 279 283 286 286 286 286 286 285 286 288 290 291 292 291 289 286 286 286 285 283 280 278 277 276 275 274 273 273 272 271 268 265 263 262 261 260 262 264 266 266 265 264 263 260 257 254 250
298 299 302 304 306 306 307 307 307 306 304 302 299 297 296 293 292 290 287 285 283 281 280 278 275 271 267 265 265 267 272 277 282 284 284 282 279 275 273 275 280 282 282 283 285 286 287 288 290 290 289 287 287 290 294 296 296 292 288 286 284 282 278 274 271 268 267 267 267 266 265 264 262 261 262 265 267 268 267 266 265 263 262 259 256 253
302 304 306 308 308 307 307 307 306 304 303 301 300 298 296 293 292 291 289 286 284 282 281 279 277 274 272 270 268 268 270 273 276 278 279 278 275 271 269 273 276 277 275 276 279 283 286 288 291 292 290 287 286 289 294 299 299 297 293 290 287 283 279 275 270 265 263 264 265 267 267 265 264 263 264 265 265 265 264 263 261 261 260 259 257 255
305 306 308 308 308 308 306 305 303 302 300 299 298 296 294 292 291 290 289 287 285 283 281 280 278 277 276 274 273 272 272 273 274 275 275 274 272 269 269 271 273 274 273 272 273 275 278 281 284 287 290 291 292 293 294 295 295 295 296 295 289 283 277 276 274 271 268 267 269 270 269 266 264 262 263 262 260 258 257 257 256 256 255 255 254 253
306 306 306 307 307 306 303 301 300 299 298 297 295 294 293 292 292 291 289 287 286 284 283 281 279 277 276 276 275 275 274 273 273 273 272 269 266 264 265 267 270 273 274 272 270 269 271 273 276 280 283 286 290 293 294 293 292 295 299 299 295 290 289 288 284 278 271 267 266 266 266 265 263 262 261 259 256 254 252 253 253 252 250 245 244 245
307 306 305 305 304 302 300 299 298 298 297 296 295 295 294 294 294 294 293 291 289 288 287 286 284 281 279 276 274 273 272 270 269 269 268 265 264 263 263 265 268 270 273 272 270 269 270 274 277 280 282 283 285 286 286 287 289 293 297 293 289 288 291 289 284 277 270 265 262 262 265 266 266 264 261 259 257 253 251 251 252 252 249 239 232 229
305 304 302 302 302 301 300 299 299 297 296 295 294 294 294 294 295 296 296 297 297 296 296 296 295 293 291 287 283 278 272 269 268 268 268 266 265 264 264 264 265 268 271 273 273 274 275 277 279 280 280 281 282 283 283 285 287 289 290 286 287 289 289 284 278 272 271 271 270 269 270 269 268 265 263 261 259 257 255 253 253 252 250 241 231 225
302 299 298 298 297 297 298 299 299 298 298 296 294 292 292 292 293 295 296 296 297 298 299 299 298 297 296 295 294 292 286 277 272 270 270 267 265 264 263 263 264 266 271 275 278 279 279 278 276 274 274 276 277 278 281 285 287 288 286 286 290 294 293 290 290 289 285 280 277 275 272 269 267 265 263 262 261 260 259 258 257 255 252 246 236 227
297 296 295 296 296 297 299 299 299 298 298 296 295 294 293 293 294 294 294 293 294 296 298 298 297 295 293 294 296 299 299 294 285 277 271 270 269 269 270 269 269 270 273 275 278 281 283 280 277 274 273 273 273 273 275 279 282 285 285 287 288 286 281 286 291 294 291 285 281 277 273 272 271 270 268 265 262 260 258 257 256 256 255 251 243 234
295 296 297 298 300 302 302 300 299 298 297 296 295 295 295 296 295 294 293 293 294 295 296 298 298 296 295 297 299 301 303 302 299 293 282 280 283 285 284 281 278 276 273 270 270 273 278 279 280 279 278 274 270 268 270 274 278 281 285 288 288 284 278 280 283 286 286 285 283 281 279 279 278 277 275 271 268 264 262 261 262 262 261 255 248 241
297 299 300 301 302 302 301 300 299 298 297 296 297 297 297 297 295 293 293 294 294 295 296 297 297 295 296 299 301 303 305 306 307 307 305 300 297 295 290 285 281 278 274 271 269 267 266 268 272 277 280 278 273 269 265 268 272 277 283 289 291 290 286 286 285 284 283 284 285 285 287 287 286 284 282 282 281 279 273 268 266 266 267 262 254 246
302 303 303 302 302 301 299 300 300 300 299 299 299 299 298 297 296 295 294 295 295 295 296 297 295 293 292 296 299 302 305 308 309 311 312 312 310 308 302 295 290 285 279 275 270 266 260 258 259 262 266 271 274 274 271 269 271 276 282 289 292 293 292 292 291 290 288 288 290 293 298 299 297 293 291 291 291 288 282 275 270 267 266 264 259 252
304 303 303 302 301 300 300 301 301 302 301 301 300 299 299 300 301 301 298 298 298 297 298 298 297 294 292 294 296 298 301 304 307 309 311 313 314 314 313 311 305 298 289 280 274 268 261 255 251 247 245 247 257 267 274 277 278 279 283 287 290 292 293 295 297 298 298 298 300 302 306 307 306 303 301 301 300 298 295 290 284 277 270 267 263 259
302 301 300 300 299 299 299 301 302 301 301 300 301 301 301 302 303 303 299 298 298 297 297 297 296 296 295 295 297 298 301 302 304 305 308 311 313 316 317 317 316 313 307 297 287 276 266 256 245 235 226 226 235 250 266 274 278 281 283 287 291 294 298 301 304 307 309 309 309 309 310 308 307 305 305 305 305 305 306 304 301 295 286 278 272 266
299 298 298 298 298 298 298 299 300 300 299 300 301 301 302 302 302 301 298 297 296 295 294 294 294 295 295 297 299 301 303 304 305 306 308 310 313 316 317 319 321 321 321 319 318 315 308 292 263 237 220 216 220 232 253 269 279 285 289 294 298 302 304 306 309 313 316 315 314 313 312 311 311 311 312 310 309 309 311 313 313 312 307 301 294 284
299 298 297 297 296 296 297 298 298 298 297 299 300 300 301 302 302 301 300 298 297 296 294 293 292 292 294 296 299 302 305 305 306 307 308 310 313 315 316 318 321 324 326 328 331 334 335 334 326 306 262 238 227 226 242 270 285 293 298 303 307 309 308 309 312 316 318 317 316 315 316 318 320 321 321 318 316 316 319 321 321 321 321 319 314 307